Time,TemperatureF,DewpointF,PressureIn,WindDirection,WindDirectionDegrees,WindSpeedMPH,WindSpeedGustMPH,Humidity,HourlyPrecipIn,Conditions,Clouds,dailyrainin,SoftwareType,DateUTC
2013-12-21 00:05:00,7.0,2.4,29.76,ENE,67,0.0,-999.0,81,-99.99,,,0.00,Acu-Link.com,2013-12-21 06:05:00,
2013-12-21 00:21:00,7.5,2.9,29.76,WSW,247,0.0,-999.0,81,-99.99,,,0.00,Acu-Link.com,2013-12-21 06:21:00,
2013-12-21 00:36:00,7.7,3.1,29.76,SW,225,0.0,-999.0,81,-99.99,,,0.00,Acu-Link.com,2013-12-21 06:36:00,
2013-12-21 00:51:00,8.1,3.5,29.76,WSW,247,0.0,-999.0,81,-99.99,,,0.00,Acu-Link.com,2013-12-21 06:51:00,
2013-12-21 01:06:00,8.4,3.8,29.76,SW,225,0.0,-999.0,81,-99.99,,,0.00,Acu-Link.com,2013-12-21 07:06:00,
2013-12-21 01:22:00,8.6,4.0,29.76,SW,225,0.0,-999.0,81,-99.99,,,0.00,Acu-Link.com,2013-12-21 07:22:00,
2013-12-21 01:37:00,8.6,4.3,29.76,SSW,202,0.0,-999.0,82,-99.99,,,0.00,Acu-Link.com,2013-12-21 07:37:00,
2013-12-21 01:52:00,8.8,4.4,29.76,East,90,0.0,-999.0,82,-99.99,,,0.00,Acu-Link.com,2013-12-21 07:52:00,
2013-12-21 02:07:00,8.8,4.4,29.77,NNE,22,0.0,-999.0,82,-99.99,,,0.00,Acu-Link.com,2013-12-21 08:07:00,
2013-12-21 02:23:00,9.0,4.6,29.78,SW,225,0.0,-999.0,82,-99.99,,,0.00,Acu-Link.com,2013-12-21 08:23:00,
2013-12-21 02:38:00,9.0,4.6,29.78,SSW,202,0.0,-999.0,82,-99.99,,,0.00,Acu-Link.com,2013-12-21 08:38:00,
2013-12-21 02:53:00,9.0,4.6,29.80,WSW,247,0.0,-999.0,82,-99.99,,,0.00,Acu-Link.com,2013-12-21 08:53:00,
2013-12-21 03:08:00,9.0,4.6,29.81,SSE,157,0.0,-999.0,82,-99.99,,,0.00,Acu-Link.com,2013-12-21 09:08:00,
2013-12-21 03:24:00,9.0,4.6,29.80,SSW,202,0.0,-999.0,82,-99.99,,,0.00,Acu-Link.com,2013-12-21 09:24:00,
2013-12-21 03:39:00,9.0,4.6,29.81,WSW,247,0.0,-999.0,82,-99.99,,,0.00,Acu-Link.com,2013-12-21 09:39:00,
2013-12-21 03:54:00,9.0,4.6,29.81,WSW,247,0.0,-999.0,82,-99.99,,,0.00,Acu-Link.com,2013-12-21 09:54:00,
2013-12-21 04:10:00,8.8,4.4,29.81,SSW,202,0.0,-999.0,82,-99.99,,,0.00,Acu-Link.com,2013-12-21 10:10:00,
2013-12-21 04:25:00,8.8,4.4,29.80,SSW,202,0.0,-999.0,82,-99.99,,,0.00,Acu-Link.com,2013-12-21 10:25:00,
2013-12-21 04:40:00,8.6,4.3,29.80,NNE,22,1.1,-999.0,82,-99.99,,,0.00,Acu-Link.com,2013-12-21 10:40:00,
2013-12-21 04:55:00,8.6,4.3,29.80,NE,45,2.2,-999.0,82,-99.99,,,0.00,Acu-Link.com,2013-12-21 10:55:00,
2013-12-21 05:11:00,8.4,4.1,29.79,NE,45,0.0,-999.0,82,-99.99,,,0.00,Acu-Link.com,2013-12-21 11:11:00,
2013-12-21 05:26:00,8.2,3.9,29.80,ENE,67,1.7,-999.0,82,-99.99,,,0.00,Acu-Link.com,2013-12-21 11:26:00,
2013-12-21 05:41:00,8.2,3.9,29.79,ENE,67,1.1,-999.0,82,-99.99,,,0.00,Acu-Link.com,2013-12-21 11:41:00,
2013-12-21 05:56:00,8.2,3.9,29.79,NE,45,2.7,-999.0,82,-99.99,,,0.00,Acu-Link.com,2013-12-21 11:56:00,
2013-12-21 06:12:00,8.2,3.9,29.79,NNW,337,0.0,-999.0,82,-99.99,,,0.00,Acu-Link.com,2013-12-21 12:12:00,
2013-12-21 06:27:00,8.2,3.9,29.80,NNE,22,0.0,-999.0,82,-99.99,,,0.00,Acu-Link.com,2013-12-21 12:27:00,
2013-12-21 06:42:00,8.2,3.9,29.79,East,90,2.2,-999.0,82,-99.99,,,0.00,Acu-Link.com,2013-12-21 12:42:00,
2013-12-21 06:58:00,8.1,3.8,29.79,NE,45,3.7,-999.0,82,-99.99,,,0.00,Acu-Link.com,2013-12-21 12:58:00,
2013-12-21 07:13:00,8.1,3.8,29.80,NNE,22,2.7,-999.0,82,-99.99,,,0.00,Acu-Link.com,2013-12-21 13:13:00,
2013-12-21 07:28:00,8.2,3.9,29.81,NE,45,1.7,-999.0,82,-99.99,,,0.00,Acu-Link.com,2013-12-21 13:28:00,
2013-12-21 07:43:00,8.2,3.9,29.82,NNW,337,0.0,-999.0,82,-99.99,,,0.00,Acu-Link.com,2013-12-21 13:43:00,
2013-12-21 07:58:00,8.4,4.1,29.83,ESE,112,2.2,-999.0,82,-99.99,,,0.00,Acu-Link.com,2013-12-21 13:58:00,
2013-12-21 08:14:00,8.6,4.3,29.82,ENE,67,4.2,-999.0,82,-99.99,,,0.00,Acu-Link.com,2013-12-21 14:14:00,
2013-12-21 08:29:00,8.6,4.3,29.82,East,90,3.7,-999.0,82,-99.99,,,0.00,Acu-Link.com,2013-12-21 14:29:00,
2013-12-21 08:44:00,8.2,3.9,29.84,East,90,3.2,-999.0,82,-99.99,,,0.00,Acu-Link.com,2013-12-21 14:44:00,
2013-12-21 08:59:00,8.8,4.4,29.85,ESE,112,5.8,-999.0,82,-99.99,,,0.00,Acu-Link.com,2013-12-21 14:59:00,
2013-12-21 09:14:00,9.0,4.6,29.84,ESE,112,4.2,-999.0,82,-99.99,,,0.00,Acu-Link.com,2013-12-21 15:14:00,
2013-12-21 09:29:00,9.3,4.9,29.85,NNE,22,4.7,-999.0,82,-99.99,,,0.00,Acu-Link.com,2013-12-21 15:29:00,
2013-12-21 09:45:00,9.5,5.1,29.87,ESE,112,2.7,-999.0,82,-99.99,,,0.00,Acu-Link.com,2013-12-21 15:45:00,
2013-12-21 10:00:00,9.9,5.5,29.89,NE,45,0.0,-999.0,82,-99.99,,,0.00,Acu-Link.com,2013-12-21 16:00:00,
2013-12-21 10:15:00,10.6,6.2,29.89,East,90,0.0,-999.0,82,-99.99,,,0.00,Acu-Link.com,2013-12-21 16:15:00,
2013-12-21 10:30:00,11.3,7.2,29.88,NNE,22,0.0,-999.0,83,-99.99,,,0.00,Acu-Link.com,2013-12-21 16:30:00,
2013-12-21 10:46:00,10.4,6.0,29.87,ESE,112,3.2,-999.0,82,-99.99,,,0.00,Acu-Link.com,2013-12-21 16:46:00,
2013-12-21 11:01:00,10.8,6.4,29.87,NNW,337,0.0,-999.0,82,-99.99,,,0.00,Acu-Link.com,2013-12-21 17:01:00,
2013-12-21 11:16:00,10.9,6.5,29.87,ENE,67,2.7,-999.0,82,-99.99,,,0.00,Acu-Link.com,2013-12-21 17:16:00,
2013-12-21 11:32:00,12.2,7.8,29.88,East,90,3.2,-999.0,82,-99.99,,,0.00,Acu-Link.com,2013-12-21 17:32:00,
2013-12-21 11:47:00,11.8,7.4,29.89,ENE,67,1.7,-999.0,82,-99.99,,,0.00,Acu-Link.com,2013-12-21 17:47:00,
2013-12-21 12:02:00,12.9,8.2,29.88,East,90,3.2,-999.0,81,-99.99,,,0.00,Acu-Link.com,2013-12-21 18:02:00,
2013-12-21 12:17:00,12.2,7.5,29.87,NE,45,2.2,-999.0,81,-99.99,,,0.00,Acu-Link.com,2013-12-21 18:17:00,
2013-12-21 12:32:00,12.4,7.7,29.86,ENE,67,5.8,-999.0,81,-99.99,,,0.00,Acu-Link.com,2013-12-21 18:32:00,
2013-12-21 12:47:00,12.0,7.3,29.85,ENE,67,5.3,-999.0,81,-99.99,,,0.00,Acu-Link.com,2013-12-21 18:47:00,
2013-12-21 13:02:00,12.0,7.3,29.88,NNE,22,2.7,-999.0,81,-99.99,,,0.00,Acu-Link.com,2013-12-21 19:02:00,
2013-12-21 13:17:00,11.1,6.4,29.89,ESE,112,5.8,-999.0,81,-99.99,,,0.00,Acu-Link.com,2013-12-21 19:17:00,
2013-12-21 13:33:00,11.1,6.4,29.90,East,90,4.2,-999.0,81,-99.99,,,0.00,Acu-Link.com,2013-12-21 19:33:00,
2013-12-21 13:48:00,11.3,6.6,29.87,ESE,112,5.3,-999.0,81,-99.99,,,0.00,Acu-Link.com,2013-12-21 19:48:00,
2013-12-21 14:03:00,11.3,6.6,29.89,NE,45,4.7,-999.0,81,-99.99,,,0.00,Acu-Link.com,2013-12-21 20:03:00,
2013-12-21 14:18:00,11.1,6.2,29.90,ENE,67,3.7,-999.0,80,-99.99,,,0.00,Acu-Link.com,2013-12-21 20:18:00,
2013-12-21 14:33:00,11.3,6.4,29.89,East,90,3.2,-999.0,80,-99.99,,,0.00,Acu-Link.com,2013-12-21 20:33:00,
2013-12-21 14:49:00,11.7,6.7,29.90,NE,45,5.8,-999.0,80,-99.99,,,0.00,Acu-Link.com,2013-12-21 20:49:00,
2013-12-21 15:04:00,11.3,6.4,29.89,NE,45,5.3,-999.0,80,-99.99,,,0.00,Acu-Link.com,2013-12-21 21:04:00,
2013-12-21 15:19:00,11.5,6.5,29.90,NE,45,5.8,-999.0,80,-99.99,,,0.00,Acu-Link.com,2013-12-21 21:19:00,
2013-12-21 15:34:00,11.1,5.9,29.90,NE,45,6.3,-999.0,79,-99.99,,,0.00,Acu-Link.com,2013-12-21 21:34:00,
2013-12-21 15:50:00,11.1,6.2,29.91,East,90,3.7,-999.0,80,-99.99,,,0.00,Acu-Link.com,2013-12-21 21:50:00,
2013-12-21 16:05:00,10.9,5.7,29.91,NE,45,6.3,-999.0,79,-99.99,,,0.00,Acu-Link.com,2013-12-21 22:05:00,
2013-12-21 16:20:00,10.9,5.7,29.91,East,90,4.2,-999.0,79,-99.99,,,0.00,Acu-Link.com,2013-12-21 22:20:00,
2013-12-21 16:35:00,10.8,5.6,29.93,East,90,5.8,-999.0,79,-99.99,,,0.00,Acu-Link.com,2013-12-21 22:35:00,
2013-12-21 16:50:00,10.9,5.7,29.93,East,90,4.7,-999.0,79,-99.99,,,0.00,Acu-Link.com,2013-12-21 22:50:00,
2013-12-21 17:06:00,10.9,5.7,29.93,ESE,112,4.7,-999.0,79,-99.99,,,0.00,Acu-Link.com,2013-12-21 23:06:00,
2013-12-21 17:21:00,10.8,5.9,29.93,ESE,112,4.7,-999.0,80,-99.99,,,0.00,Acu-Link.com,2013-12-21 23:21:00,
2013-12-21 17:36:00,10.6,5.7,29.93,ESE,112,6.3,-999.0,80,-99.99,,,0.00,Acu-Link.com,2013-12-21 23:36:00,
2013-12-21 17:51:00,10.6,5.7,29.92,East,90,5.8,-999.0,80,-99.99,,,0.00,Acu-Link.com,2013-12-21 23:51:00,
2013-12-21 18:06:00,10.6,5.7,29.92,ESE,112,7.3,-999.0,80,-99.99,,,0.00,Acu-Link.com,2013-12-22 00:06:00,
2013-12-21 18:22:00,10.4,5.5,29.91,East,90,5.8,-999.0,80,-99.99,,,0.00,Acu-Link.com,2013-12-22 00:22:00,
2013-12-21 18:37:00,10.2,5.0,29.93,NE,45,5.3,-999.0,79,-99.99,,,0.00,Acu-Link.com,2013-12-22 00:37:00,
2013-12-21 18:52:00,10.6,5.4,29.94,East,90,4.7,-999.0,79,-99.99,,,0.00,Acu-Link.com,2013-12-22 00:52:00,
2013-12-21 19:07:00,10.4,5.2,29.93,NE,45,5.3,-999.0,79,-99.99,,,0.00,Acu-Link.com,2013-12-22 01:07:00,
2013-12-21 19:22:00,10.6,5.4,29.94,ESE,112,4.2,-999.0,79,-99.99,,,0.00,Acu-Link.com,2013-12-22 01:22:00,
2013-12-21 19:37:00,10.6,5.7,29.95,NE,45,2.7,-999.0,80,-99.99,,,0.00,Acu-Link.com,2013-12-22 01:37:00,
2013-12-21 19:53:00,10.8,5.9,29.95,East,90,3.2,-999.0,80,-99.99,,,0.00,Acu-Link.com,2013-12-22 01:53:00,
2013-12-21 20:08:00,10.8,5.9,29.95,ENE,67,1.7,-999.0,80,-99.99,,,0.00,Acu-Link.com,2013-12-22 02:08:00,
2013-12-21 20:23:00,10.6,5.7,29.95,ENE,67,1.1,-999.0,80,-99.99,,,0.00,Acu-Link.com,2013-12-22 02:23:00,
2013-12-21 20:39:00,10.6,5.4,29.94,East,90,3.7,-999.0,79,-99.99,,,0.00,Acu-Link.com,2013-12-22 02:39:00,
2013-12-21 20:54:00,10.4,5.2,29.94,NE,45,5.8,-999.0,79,-99.99,,,0.00,Acu-Link.com,2013-12-22 02:54:00,
2013-12-21 21:09:00,10.2,5.0,29.93,NE,45,4.2,-999.0,79,-99.99,,,0.00,Acu-Link.com,2013-12-22 03:09:00,
2013-12-21 21:24:00,10.2,5.0,29.93,NE,45,4.2,-999.0,79,-99.99,,,0.00,Acu-Link.com,2013-12-22 03:24:00,
2013-12-21 21:39:00,10.4,5.2,29.92,East,90,7.3,-999.0,79,-99.99,,,0.00,Acu-Link.com,2013-12-22 03:39:00,
2013-12-21 21:54:00,10.4,5.2,29.92,NNE,22,5.3,-999.0,79,-99.99,,,0.00,Acu-Link.com,2013-12-22 03:54:00,
2013-12-21 22:09:00,10.4,5.2,29.92,NE,45,7.8,-999.0,79,-99.99,,,0.00,Acu-Link.com,2013-12-22 04:09:00,
2013-12-21 22:24:00,10.4,5.2,29.92,NNE,22,4.7,-999.0,79,-99.99,,,0.00,Acu-Link.com,2013-12-22 04:24:00,
2013-12-21 22:39:00,10.4,5.2,29.92,NE,45,3.7,-999.0,79,-99.99,,,0.00,Acu-Link.com,2013-12-22 04:39:00,
2013-12-21 22:55:00,10.4,5.2,29.92,ENE,67,6.3,-999.0,79,-99.99,,,0.00,Acu-Link.com,2013-12-22 04:55:00,
2013-12-21 23:10:00,10.4,5.2,29.93,ENE,67,6.8,-999.0,79,-99.99,,,0.00,Acu-Link.com,2013-12-22 05:10:00,
2013-12-21 23:26:00,10.4,5.2,29.93,NE,45,3.7,-999.0,79,-99.99,,,0.00,Acu-Link.com,2013-12-22 05:26:00,
2013-12-21 23:41:00,10.4,5.2,29.93,ENE,67,5.8,-999.0,79,-99.99,,,0.00,Acu-Link.com,2013-12-22 05:41:00,
2013-12-21 23:56:00,10.6,5.4,29.93,ENE,67,6.8,-999.0,79,-99.99,,,0.00,Acu-Link.com,2013-12-22 05:56:00,